Miscellaneous Local Product
Issued by NWS Hastings, NE

Home | Current Version | Previous Version | Text Only | Print | Product List | Glossary On
Versions: 1 2 3 4 5 6 7 8 9 10 11 12 13 14 15 16 17 18 19 20 21 22 23 24 25 26 27 28 29 30 31 32 33 34 35 36 37 38 39 40 41 42 43 44 45 46 47 48 49 50
000
AXUS43 KGID 162302
MISGRI

GID CWA HOURLY WEATHER ROUNDUP
NATIONAL WEATHER SERVICE HASTINGS NE
500 PM CST TUE JAN 16 2018

NOTE: "FAIR" INDICATES FEW OR NO CLOUDS BELOW 12,000 FEET WITH NO
SIGNIFICANT WEATHER AND/OR OBSTRUCTIONS TO VISIBILITY.

...SOUTH CENTRAL NEBRASKA...

CITY           SKY/WX    TMP DP  RH WIND       PRES   REMARKS
GRAND ISLAND   CLEAR     12   3  67 W5        30.63F WCI   4
KEARNEY        CLEAR     11   2  67 SE3       30.61F
HASTINGS       CLEAR     11   1  64 W5        30.64F WCI   3
ORD            CLEAR     13   1  59 SW8       30.58F WCI   2
YORK           CLEAR     12   5  73 CALM      30.66S
AURORA         CLEAR     11   2  67 W3        30.64F
LEXINGTON      CLEAR     17   2  52 SW7       30.57F WCI   8
HOLDREGE       CLEAR     16   2  55 SW5       30.59F WCI   9
HEBRON         CLEAR     13   5  70 NW5       30.69F WCI   5

...NEBRASKA PANHANDLE...

CITY           SKY/WX    TMP DP  RH WIND       PRES   REMARKS
CHADRON        CLEAR     26  10  50 S10       30.33F WCI  16
ALLIANCE       CLEAR     19   9  65 S8        30.35F WCI   9
SCOTTSBLUFF    CLEAR     13   6  74 E5        30.34F WCI   5
SIDNEY         CLEAR     25   4  40 S12       30.36F WCI  14

...WESTERN AND NORTH CENTRAL NEBRASKA...

CITY           SKY/WX    TMP DP  RH WIND       PRES   REMARKS
VALENTINE      CLEAR     19   2  47 S12       30.45F WCI   7
AINSWORTH      CLEAR     13   2  61 S10       30.48F WCI   0
ONEILL         CLEAR     10   2  68 S5        30.57F WCI   2
BROKEN BOW     CLEAR     13   0  56 SW7       30.54F WCI   3
IMPERIAL       CLEAR     21  -1  38 S6        30.47F WCI  13
NORTH PLATTE   CLEAR     16   0  49 S3        30.51F
MCCOOK         CLEAR     17   1  49 S7        30.56F WCI   8

...EASTERN NEBRASKA...

CITY           SKY/WX    TMP DP  RH WIND       PRES   REMARKS
NORFOLK        CLEAR     11   1  64 VRB6      30.61F WCI   1
SO SIOUX CITY  CLEAR      9   1  70 W6        30.68F WCI  -1
TEKAMAH        CLEAR      9   0  67 NW5       30.70F WCI   1
COLUMBUS       CLEAR     12   3  67 NW6       30.67F WCI   3
ALBION         CLEAR     15   2  57 W5        30.61F WCI   8
OMAHA EPPLEY   CLEAR     10   1  67 NW7       30.70F WCI  -1
OFFUTT AFB     CLEAR      9   0  68 NW5       30.69F WCI   0
MILLARD        CLEAR     13   4  67 NW7       30.70S WCI   3
LINCOLN        CLEAR     15   4  61 N7        30.70F WCI   5
NEBRASKA CITY  CLEAR      9   3  77 CALM      30.70S
BEATRICE       CLEAR     14   6  72 NW7       30.69S WCI   4
FALLS CITY     CLEAR      8   0  69 NW9       30.72F WCI  -5

...NORTHERN KANSAS...

CITY           SKY/WX    TMP DP  RH WIND       PRES   REMARKS
GOODLAND       CLEAR     24  -6  26 S7        30.46S WCI  16
HILL CITY      CLEAR     18   1  47 CALM      30.62F
NORTON         CLEAR     16   0  48 SW3       30.59F
PHILLIPSBURG   CLEAR     18   1  49 CALM      30.65S
SMITH CENTER     N/A     16   1  53 CALM      30.66F
BELOIT         CLEAR     18   1  49 CALM      30.70F
HAYS           CLEAR     19   3  49 CALM      30.65F
RUSSELL        CLEAR     17   3  54 NW6       30.65S WCI   9
CONCORDIA      CLEAR     13   4  67 NW6       30.69S WCI   4
SALINA         CLEAR     17   6  62 NW7       30.72S WCI   8
TOPEKA         CLEAR     13   3  64 NW8       30.73S WCI   2



USA.gov is the U.S. government's official web portal to all federal, state and local government web resources and services.